Simultaneous Nadir Overpasses (SNOs) Predictions

Prediction of SNOs between METOP-C and LANDSAT-8 Satellite Orbit:

Table of predicted SNOs for the next 14.0 days since TLE Epoch: 9/28/2024
Index Date (METOP-C) Time (METOP-C) Lat,Lon (METOP-C) SZA (METOP-C ) Date (LANDSAT-8) Time (LANDSAT-8) Lat,Lon (LANDSAT-8) SZA (LANDSAT-8 ) Distance(km) Time Diff (sec)
1 09/28/2024 23:35:17 81.10,-134.32 85.85 09/28/2024 23:35:21 81.10,-134.18 85.87 2.38 4
2 09/29/2024 00:25:55 -81.13, 33.91 94.02 09/29/2024 00:24:47 -81.12, 33.74 94.08 3.07 68
3 10/01/2024 18:18:59 -81.09, 124.61 93.08 10/01/2024 18:20:06 -81.09, 124.42 93.07 3.26 67
4 10/01/2024 19:09:39 81.11, -67.66 87.00 10/01/2024 19:09:31 81.11, -67.53 87.01 2.25 8
5 10/04/2024 13:53:20 -81.10,-168.85 91.95 10/04/2024 13:54:14 -81.10,-168.98 91.95 2.24 54
6 10/04/2024 14:43:59 81.12, -0.78 88.16 10/04/2024 14:43:39 81.12, -0.96 88.13 3.02 20
7 10/07/2024 09:27:42 -81.10,-102.46 90.86 10/07/2024 09:28:22 -81.10,-102.44 90.84 0.45 40
8 10/07/2024 10:18:21 81.12, 65.56 89.25 10/07/2024 10:17:47 81.12, 65.55 89.23 0.32 34
9 10/10/2024 05:02:03 -81.10, -35.85 89.75 10/10/2024 05:02:29 -81.10, -35.98 89.76 2.36 26



Historial Predications of SNOs between METOP-C and LANDSAT-8
